Location: Austin
(30.3000°N, 97.7500°W)
Time: 05:47:53
(UTC-05:00)

USA 281 - Pass Details

Date: 16 June 2025
Orbit: 1078 x 1081 km, 106.0° (Epoch: 28 April)

Event Time Altitude Azimuth Distance (km) Brightness Sun altitude
Rises 04:04:21 0° 27° (NNE) 3,879 7.4 -25.0°
Reaches altitude 10° 04:06:57 10° 32° (NNE) 2,921 6.5 -24.7°
Maximum altitude 04:13:19 53° 108° (ESE) 1,311 3.7 -23.8°
Enters shadow 04:16:38 28° 171° (S) 1,890 4.1 -23.3°
